Weather History for KMKC - October, 2014

Change the Weather History Date:

Monday, October 20, 2014

  Actual Average Record
Temperature  
Mean Temperature 64 °F -  
Max Temperature 75 °F 64 °F 87 °F (2003)
Min Temperature 52 °F 46 °F 34 °F (2002)
Degree Days  
Heating Degree Days 2    
Growing Degree Days 14 (Base 50)    
Moisture  
Dew Point 49 °F    
Average Humidity 67    
Maximum Humidity 93    
Minimum Humidity 33    
Precipitation  
Precipitation 0.00 in - - ()
Sea Level Pressure  
Sea Level Pressure 30.02 in    
Wind  
Wind Speed 3 mph (NNW)    
Max Wind Speed 7 mph    
Max Gust Speed -    
Visibility 10 miles    
Events      
Averages and records for this station are not official NWS values.
T = Trace of Precipitation, MM = Missing Value Source: NWS Daily Summary

Daily Weather History Graph

Daily Weather History Graph

Search for Another Location

Airport or City:

Trip Planner

Search our weather history database for the weather conditions in past years. The results will help you decide how hot, cold, wet, or windy it might be!

Date:

Astronomy

Oct. 20, 2014 Rise Set
Actual Time 7:33 AM CDT 6:32 PM CDT
Civil Twilight 7:06 AM CDT 6:59 PM CDT
Nautical Twilight 6:34 AM CDT 7:30 PM CDT
Astronomical Twilight 6:03 AM CDT 8:01 PM CDT
Moon 4:23 AM CDT (10/20) 4:54 PM CDT (10/20)
Length of Visible Light 11h 53m
Length of Day
10h 59m
Waning Crescent, 10% of the Moon is Illuminated
Oct 20
Waning Crescent
Oct 23
New
Oct 30
First Quarter
Nov 6
Full
Nov 14
Last Quarter

Hourly Weather History & Observations

Time (CDT) Temp. Dew Point Humidity Pressure Visibility Wind Dir Wind Speed Gust Speed Precip Events Conditions
12:54 AM 57.9 °F 51.1 °F 78% 30.00 in 10.0 mi SW 4.6 mph - N/A   Clear
1:54 AM 57.9 °F 51.1 °F 78% 30.00 in 10.0 mi SW 5.8 mph - N/A   Clear
2:54 AM 55.9 °F 51.1 °F 84% 30.00 in 10.0 mi SW 3.5 mph - N/A   Clear
3:54 AM 55.0 °F 50.0 °F 83% 29.99 in 10.0 mi Calm Calm - N/A   Clear
4:54 AM 55.0 °F 51.1 °F 86% 29.97 in 10.0 mi Calm Calm - N/A   Clear
5:54 AM 53.1 °F 50.0 °F 89% 29.98 in 10.0 mi SSW 3.5 mph - N/A   Clear
6:54 AM 52.0 °F 50.0 °F 93% 29.99 in 8.0 mi Calm Calm - N/A   Clear
7:54 AM 53.1 °F 50.0 °F 89% 30.01 in 7.0 mi Calm Calm - N/A   Clear
8:06 AM 54.0 °F 51.1 °F 90% 30.02 in 8.0 mi Calm Calm - N/A   Unknown
8:54 AM 57.0 °F 53.1 °F 87% 30.03 in 8.0 mi Calm Calm - N/A   Clear
9:54 AM 60.8 °F 53.6 °F 77% 30.06 in 10.0 mi NW 3.5 mph - N/A   Clear
10:54 AM 66.0 °F 52.0 °F 60% 30.05 in 10.0 mi North 6.9 mph - N/A   Clear
11:54 AM 69.8 °F 48.2 °F 46% 30.06 in 10.0 mi Variable 5.8 mph - N/A   Clear
12:54 PM 72.0 °F 48.0 °F 43% 30.04 in 10.0 mi NE 6.9 mph - N/A   Clear
1:54 PM 73.9 °F 48.0 °F 40% 30.02 in 10.0 mi North 5.8 mph - N/A   Clear
2:54 PM 75.0 °F 46.9 °F 37% 30.01 in 10.0 mi NNE 4.6 mph - N/A   Clear
3:54 PM 75.0 °F 44.1 °F 33% 30.01 in 10.0 mi North 6.9 mph - N/A   Clear
4:54 PM 73.9 °F 44.1 °F 34% 30.01 in 10.0 mi NW 5.8 mph - N/A   Clear
5:54 PM 72.0 °F 43.0 °F 35% 30.01 in 10.0 mi North 4.6 mph - N/A   Clear
6:54 PM 66.0 °F 45.0 °F 47% 30.02 in 10.0 mi NW 3.5 mph - N/A   Clear
7:54 PM 62.1 °F 46.9 °F 58% 30.04 in 10.0 mi Calm Calm - N/A   Clear
8:54 PM 57.9 °F 48.9 °F 72% 30.04 in 10.0 mi Calm Calm - N/A   Clear
9:54 PM 55.9 °F 48.9 °F 77% 30.06 in 10.0 mi Calm Calm - N/A   Clear
10:54 PM 54.0 °F 48.0 °F 80% 30.06 in 10.0 mi Calm Calm - N/A   Clear
11:54 PM 52.0 °F 48.0 °F 86% 30.06 in 10.0 mi Calm Calm - N/A   Clear